| time (UTC) | temp F | wind direction | speed knots | gust knots | rain 1hr in | rain 24hr in | rain mn in | humidity % | barometer mb |
| 20260510224607 | 81 | 111 | 0.0 | 1.7 | 0.00 | 0.00 | 0.00 | 35 | 1012.4 |
| 20260510224058 | 81 | 129 | 0.0 | 1.7 | 0.00 | 0.00 | 0.00 | 33 | 1012.3 |
| 20260510223558 | 81 | 82 | 0.0 | 1.7 | 0.00 | 0.00 | 0.00 | 34 | 1012.3 |
| 20260510223125 | 82 | 111 | 0.0 | 1.7 | 0.00 | 0.00 | 0.00 | 33 | 1012.3 |
| 20260510222553 | 82 | 125 | 0.0 | 2.6 | 0.00 | 0.00 | 0.00 | 33 | 1012.4 |
| 20260510222051 | 82 | 119 | 0.0 | 2.6 | 0.00 | 0.00 | 0.00 | 33 | 1012.3 |
| 20260510221549 | 82 | 135 | 0.9 | 1.7 | 0.00 | 0.00 | 0.00 | 33 | 1012.2 |
| 20260510221048 | 82 | 145 | 0.0 | 1.7 | 0.00 | 0.00 | 0.00 | 32 | 1012.2 |
| 20260510220547 | 82 | 114 | 0.0 | 2.6 | 0.00 | 0.00 | 0.00 | 32 | 1012.3 |
| 20260510220045 | 82 | 105 | 0.0 | 2.6 | 0.00 | 0.00 | 0.00 | 32 | 1012.4 |
| 20260510215543 | 82 | 121 | 0.9 | 5.2 | 0.00 | 0.00 | 0.00 | 30 | 1012.3 |
| 20260510215041 | 83 | 107 | 0.0 | 5.2 | 0.00 | 0.00 | 0.00 | 31 | 1012.4 |
| 20260510214540 | 83 | 136 | 0.9 | 4.3 | 0.00 | 0.00 | 0.00 | 31 | 1012.4 |
| 20260510214040 | 83 | 150 | 0.9 | 2.6 | 0.00 | 0.00 | 0.00 | 31 | 1012.4 |
| 20260510213540 | 83 | 119 | 0.0 | 1.7 | 0.00 | 0.00 | 0.00 | 31 | 1012.4 |
| 20260510213046 | 83 | 105 | 0.0 | 2.6 | 0.00 | 0.00 | 0.00 | 30 | 1012.4 |
| 20260510212534 | 83 | 121 | 0.9 | 7.8 | 0.00 | 0.00 | 0.00 | 30 | 1012.5 |
| 20260510212035 | 83 | 157 | 0.9 | 7.8 | 0.00 | 0.00 | 0.00 | 30 | 1012.4 |
| 20260510211534 | 83 | 146 | 0.0 | 2.6 | 0.00 | 0.00 | 0.00 | 30 | 1012.5 |
| 20260510211031 | 83 | 117 | 0.9 | 6.1 | 0.00 | 0.00 | 0.00 | 30 | 1012.5 |
| 20260510210528 | 84 | 167 | 1.7 | 6.1 | 0.00 | 0.00 | 0.00 | 29 | 1012.3 |
| 20260510210041 | 84 | 124 | 0.0 | 6.1 | 0.00 | 0.00 | 0.00 | 32 | 1012.3 |
| 20260510205526 | 84 | 118 | 0.0 | 3.5 | 0.00 | 0.00 | 0.00 | 30 | 1012.3 |
| 20260510205024 | 84 | 131 | 0.0 | 1.7 | 0.00 | 0.00 | 0.00 | 31 | 1012.4 |
| 20260510204534 | 84 | 108 | 0.0 | 1.7 | 0.00 | 0.00 | 0.00 | 30 | 1012.5 |
| 20260510204021 | 84 | 121 | 0.0 | 2.6 | 0.00 | 0.00 | 0.00 | 30 | 1012.4 |
| 20260510203519 | 85 | 139 | 0.9 | 2.6 | 0.00 | 0.00 | 0.00 | 29 | 1012.5 |
| 20260510203019 | 85 | 148 | 0.0 | 2.6 | 0.00 | 0.00 | 0.00 | 30 | 1012.4 |
| 20260510202519 | 85 | 124 | 0.0 | 1.7 | 0.00 | 0.00 | 0.00 | 29 | 1012.5 |
| 20260510202015 | 86 | 144 | 0.0 | 2.6 | 0.00 | 0.00 | 0.00 | 29 | 1012.3 |
| 20260510201514 | 87 | 155 | 0.9 | 3.5 | 0.00 | 0.00 | 0.00 | 28 | 1012.4 |
| 20260510201016 | 87 | 126 | 0.9 | 1.7 | 0.00 | 0.00 | 0.00 | 28 | 1012.6 |
| 20260510200511 | 88 | 136 | 0.0 | 1.7 | 0.00 | 0.00 | 0.00 | 29 | 1012.6 |
| 20260510200010 | 88 | 142 | 0.0 | 2.6 | 0.00 | 0.00 | 0.00 | 30 | 1012.7 |
| 20260510195507 | 88 | 115 | 0.9 | 3.5 | 0.00 | 0.00 | 0.00 | 27 | 1012.8 |
| 20260510195006 | 89 | 146 | 0.9 | 3.5 | 0.00 | 0.00 | 0.00 | 29 | 1012.8 |
| 20260510194508 | 88 | 167 | 0.0 | 2.6 | 0.00 | 0.00 | 0.00 | 29 | 1012.8 |
| 20260510194005 | 88 | 150 | 0.9 | 2.6 | 0.00 | 0.00 | 0.00 | 27 | 1012.8 |
| 20260510193503 | 88 | 128 | 0.9 | 2.6 | 0.00 | 0.00 | 0.00 | 29 | 1013.0 |
| 20260510193102 | 88 | 138 | 0.0 | 3.5 | 0.00 | 0.00 | 0.00 | 30 | 1013.1 |
| 20260510192600 | 88 | 130 | 0.9 | 3.5 | 0.00 | 0.00 | 0.00 | 27 | 1013.1 |
| 20260510192059 | 88 | 138 | 0.9 | 7.0 | 0.00 | 0.00 | 0.00 | 29 | 1013.3 |
| 20260510191557 | 88 | 61 | 0.9 | 7.0 | 0.00 | 0.00 | 0.00 | 28 | 1013.2 |
| 20260510191055 | 89 | 134 | 0.9 | 8.7 | 0.00 | 0.00 | 0.00 | 28 | 1013.1 |
| 20260510190553 | 88 | 153 | 0.9 | 8.7 | 0.00 | 0.00 | 0.00 | 31 | 1013.2 |
| 20260510190055 | 88 | 161 | 0.0 | 4.3 | 0.00 | 0.00 | 0.00 | 27 | 1013.3 |
| 20260510185550 | 88 | 169 | 0.0 | 1.7 | 0.00 | 0.00 | 0.00 | 29 | 1013.3 |
| 20260510185049 | 88 | 57 | 0.9 | 1.7 | 0.00 | 0.00 | 0.00 | 29 | 1013.5 |
| 20260510184547 | 88 | 121 | 0.0 | 2.6 | 0.00 | 0.00 | 0.00 | 29 | 1013.4 |
| 20260510184045 | 88 | 109 | 0.9 | 7.8 | 0.00 | 0.00 | 0.00 | 30 | 1013.4 |
| 20260510183546 | 88 | 159 | 0.9 | 7.8 | 0.00 | 0.00 | 0.00 | 28 | 1013.5 |
| 20260510183055 | 88 | 126 | 0.9 | 3.5 | 0.00 | 0.00 | 0.00 | 28 | 1013.4 |
| 20260510182543 | 88 | 117 | 0.0 | 3.5 | 0.00 | 0.00 | 0.00 | 31 | 1013.4 |
| 20260510182040 | 88 | 115 | 0.9 | 3.5 | 0.00 | 0.00 | 0.00 | 30 | 1013.5 |
| 20260510181611 | 88 | 131 | 0.9 | 5.2 | 0.00 | 0.00 | 0.00 | 29 | 1013.4 |
| 20260510181037 | 88 | 155 | 0.9 | 2.6 | 0.00 | 0.00 | 0.00 | 30 | 1013.4 |
| 20260510180536 | 88 | 163 | 0.0 | 4.3 | 0.00 | 0.00 | 0.00 | 31 | 1013.5 |
| 20260510180042 | 88 | 166 | 0.0 | 4.3 | 0.00 | 0.00 | 0.00 | 30 | 1013.7 |
| 20260510175535 | 87 | 107 | 0.0 | 2.6 | 0.00 | 0.00 | 0.00 | 30 | 1013.7 |
| 20260510175030 | 87 | 131 | 0.9 | 2.6 | 0.00 | 0.00 | 0.00 | 31 | 1013.8 |
| 20260510174548 | 87 | 117 | 0.9 | 3.5 | 0.00 | 0.00 | 0.00 | 29 | 1013.8 |
| 20260510174028 | 88 | 174 | 0.9 | 3.5 | 0.00 | 0.00 | 0.00 | 30 | 1013.8 |
| 20260510173526 | 87 | 161 | 0.9 | 3.5 | 0.00 | 0.00 | 0.00 | 30 | 1013.8 |
| 20260510173025 | 87 | 101 | 1.7 | 3.5 | 0.00 | 0.00 | 0.00 | 31 | 1013.8 |
| 20260510172524 | 87 | 171 | 0.9 | 3.5 | 0.00 | 0.00 | 0.00 | 32 | 1013.7 |
| 20260510172021 | 87 | 165 | 0.9 | 3.5 | 0.00 | 0.00 | 0.00 | 33 | 1013.8 |
| 20260510171520 | 86 | 126 | 0.9 | 1.7 | 0.00 | 0.00 | 0.00 | 31 | 1013.7 |
| 20260510171018 | 86 | 129 | 0.0 | 1.7 | 0.00 | 0.00 | 0.00 | 31 | 1013.9 |
| 20260510170517 | 87 | 55 | 0.9 | 3.5 | 0.00 | 0.00 | 0.00 | 32 | 1013.9 |
| 20260510170017 | 86 | 186 | 0.9 | 4.3 | 0.00 | 0.00 | 0.00 | 32 | 1014.0 |
| 20260510165514 | 86 | 146 | 1.7 | 4.3 | 0.00 | 0.00 | 0.00 | 31 | 1014.0 |
| 20260510165013 | 86 | 126 | 0.9 | 4.3 | 0.00 | 0.00 | 0.00 | 31 | 1014.0 |
| 20260510164511 | 86 | 171 | 0.0 | 4.3 | 0.00 | 0.00 | 0.00 | 30 | 1014.1 |
| 20260510164010 | 86 | 161 | 0.9 | 3.5 | 0.00 | 0.00 | 0.00 | 33 | 1014.1 |
| 20260510163508 | 86 | 168 | 0.9 | 4.3 | 0.00 | 0.00 | 0.00 | 37 | 1014.1 |
| 20260510163007 | 85 | 165 | 0.9 | 4.3 | 0.00 | 0.00 | 0.00 | 34 | 1014.1 |
| 20260510162506 | 85 | 145 | 0.0 | 5.2 | 0.00 | 0.00 | 0.00 | 35 | 1014.1 |
| 20260510162007 | 85 | 111 | 0.9 | 5.2 | 0.00 | 0.00 | 0.00 | 34 | 1014.2 |
| 20260510161503 | 85 | 113 | 0.0 | 2.6 | 0.00 | 0.00 | 0.00 | 33 | 1014.2 |
| 20260510161001 | 85 | 153 | 0.9 | 6.1 | 0.00 | 0.00 | 0.00 | 33 | 1014.4 |
| 20260510160559 | 85 | 171 | 0.9 | 5.2 | 0.00 | 0.00 | 0.00 | 34 | 1014.5 |
| 20260510160104 | 85 | 149 | 1.7 | 3.5 | 0.00 | 0.00 | 0.00 | 33 | 1014.6 |
| 20260510155556 | 85 | 139 | 0.9 | 2.6 | 0.00 | 0.00 | 0.00 | 34 | 1014.6 |
| 20260510155054 | 85 | 132 | 0.0 | 2.6 | 0.00 | 0.00 | 0.00 | 39 | 1014.5 |
| 20260510154558 | 85 | 350 | 0.0 | 2.6 | 0.00 | 0.00 | 0.00 | 36 | 1014.6 |
| 20260510154055 | 84 | 86 | 1.7 | 3.5 | 0.00 | 0.00 | 0.00 | 35 | 1014.6 |
| 20260510153549 | 84 | 140 | 0.9 | 3.5 | 0.00 | 0.00 | 0.00 | 35 | 1014.7 |
| 20260510153051 | 84 | 128 | 0.0 | 2.6 | 0.00 | 0.00 | 0.00 | 37 | 1014.8 |
| 20260510152548 | 84 | 127 | 0.0 | 1.7 | 0.00 | 0.00 | 0.00 | 40 | 1014.8 |
| 20260510152046 | 83 | 120 | 0.9 | 1.7 | 0.00 | 0.00 | 0.00 | 39 | 1014.7 |
| 20260510151548 | 83 | 113 | 0.0 | 1.7 | 0.00 | 0.00 | 0.00 | 37 | 1014.9 |
| 20260510151042 | 83 | 136 | 0.0 | 2.6 | 0.00 | 0.00 | 0.00 | 37 | 1014.9 |
| 20260510150541 | 83 | 140 | 0.9 | 1.7 | 0.00 | 0.00 | 0.00 | 41 | 1015.0 |
| 20260510150041 | 82 | 140 | 0.0 | 1.7 | 0.00 | 0.00 | 0.00 | 42 | 1015.0 |
| 20260510145538 | 81 | 139 | 0.0 | 1.7 | 0.00 | 0.00 | 0.00 | 40 | 1015.0 |
| 20260510145036 | 81 | 140 | 0.0 | 2.6 | 0.00 | 0.00 | 0.00 | 39 | 1014.9 |
| 20260510144535 | 81 | 38 | 0.0 | 2.6 | 0.00 | 0.00 | 0.00 | 38 | 1014.9 |
| 20260510144036 | 81 | 84 | 0.0 | 2.6 | 0.00 | 0.00 | 0.00 | 41 | 1014.9 |
| 20260510143531 | 80 | 84 | 0.9 | 2.6 | 0.00 | 0.00 | 0.00 | 42 | 1014.9 |
| 20260510143031 | 80 | 80 | 0.0 | 2.6 | 0.00 | 0.00 | 0.00 | 43 | 1014.7 |
| 20260510142529 | 79 | 80 | 0.0 | 2.6 | 0.00 | 0.00 | 0.00 | 41 | 1014.7 |
| 20260510142030 | 79 | 80 | 0.0 | 1.7 | 0.00 | 0.00 | 0.00 | 44 | 1014.7 |
| 20260510141534 | 79 | 44 | 0.0 | 1.7 | 0.00 | 0.00 | 0.00 | 44 | 1014.6 |
| 20260510141025 | 78 | 106 | 0.0 | 1.7 | 0.00 | 0.00 | 0.00 | 44 | 1014.7 |
| 20260510140524 | 77 | 104 | 0.0 | 0.9 | 0.00 | 0.00 | 0.00 | 46 | 1014.6 |
| 20260510140022 | 77 | 90 | 0.0 | 1.7 | 0.00 | 0.00 | 0.00 | 46 | 1014.7 |
| 20260510135521 | 76 | 342 | 0.0 | 1.7 | 0.00 | 0.00 | 0.00 | 48 | 1014.7 |
| 20260510135021 | 75 | 342 | 0.0 | 1.7 | 0.00 | 0.00 | 0.00 | 48 | 1014.7 |
| 20260510134518 | 75 | 342 | 0.0 | 1.7 | 0.00 | 0.00 | 0.00 | 49 | 1014.5 |
| 20260510134017 | 74 | 342 | 0.0 | 1.7 | 0.00 | 0.00 | 0.00 | 50 | 1014.6 |
| 20260510133517 | 73 | 342 | 0.0 | 0.0 | 0.00 | 0.00 | 0.00 | 49 | 1014.6 |
| 20260510133014 | 73 | 342 | 0.0 | 1.7 | 0.00 | 0.00 | 0.00 | 46 | 1014.6 |
| 20260510132512 | 72 | 342 | 0.0 | 1.7 | 0.00 | 0.00 | 0.00 | 39 | 1014.6 |
| 20260510132010 | 71 | 342 | 0.0 | 0.0 | 0.00 | 0.00 | 0.00 | 22 | 1014.7 |
| 20260510131509 | 69 | 342 | 0.0 | 0.0 | 0.00 | 0.00 | 0.00 | 6 | 1014.8 |
| 20260510131008 | 68 | 342 | 0.0 | 0.0 | 0.00 | 0.00 | 0.00 | 1 | 1014.8 |
| 20260510130506 | 68 | 342 | 0.0 | 0.0 | 0.00 | 0.00 | 0.00 | 1 | 1014.7 |
| 20260510130005 | 67 | 342 | 0.0 | 0.0 | 0.00 | 0.00 | 0.00 | 1 | 1014.5 |
| 20260510125504 | 66 | 342 | 0.0 | 0.9 | 0.00 | 0.00 | 0.00 | 1 | 1014.4 |
| 20260510125001 | 66 | 342 | 0.0 | 0.9 | 0.00 | 0.00 | 0.00 | 1 | 1014.3 |
| 20260510124605 | 65 | 342 | 0.0 | 0.9 | 0.00 | 0.00 | 0.00 | 1 | 1014.5 |
| 20260510124059 | 64 | 342 | 0.0 | 0.0 | 0.00 | 0.00 | 0.00 | 1 | 1014.4 |
| 20260510123558 | 64 | 342 | 0.0 | 0.0 | 0.00 | 0.00 | 0.00 | 1 | 1014.4 |
| 20260510123056 | 63 | 342 | 0.0 | 0.0 | 0.00 | 0.00 | 0.00 | 1 | 1014.5 |
| 20260510122554 | 62 | 342 | 0.0 | 0.0 | 0.00 | 0.00 | 0.00 | 1 | 1014.4 |
| 20260510122053 | 61 | 342 | 0.0 | 0.0 | 0.00 | 0.00 | 0.00 | 1 | 1014.3 |
| 20260510121551 | 61 | 342 | 0.0 | 0.0 | 0.00 | 0.00 | 0.00 | 1 | 1014.0 |
| 20260510121051 | 60 | 342 | 0.0 | 0.0 | 0.00 | 0.00 | 0.00 | 1 | 1013.9 |
| 20260510120548 | 60 | 342 | 0.0 | 0.0 | 0.00 | 0.00 | 0.00 | 1 | 1013.7 |
| 20260510120047 | 60 | 342 | 0.0 | 0.0 | 0.00 | 0.00 | 0.00 | 1 | 1013.6 |
| 20260510115546 | 59 | 342 | 0.0 | 0.0 | 0.00 | 0.00 | 0.00 | 1 | 1013.5 |
| 20260510115044 | 58 | 342 | 0.0 | 0.0 | 0.00 | 0.00 | 0.00 | 1 | 1013.5 |
| 20260510114543 | 58 | 342 | 0.0 | 0.0 | 0.00 | 0.00 | 0.00 | 1 | 1013.5 |
| 20260510114041 | 57 | 342 | 0.0 | 0.0 | 0.00 | 0.00 | 0.00 | 1 | 1013.4 |
| 20260510113539 | 57 | 342 | 0.0 | 0.0 | 0.00 | 0.00 | 0.00 | 1 | 1013.4 |
| 20260510113040 | 57 | 342 | 0.0 | 0.0 | 0.00 | 0.00 | 0.00 | 1 | 1013.3 |
| 20260510112537 | 57 | 51 | 0.0 | 0.0 | 0.00 | 0.00 | 0.00 | 1 | 1013.2 |
| 20260510112038 | 56 | 51 | 0.0 | 0.0 | 0.00 | 0.00 | 0.00 | 1 | 1013.2 |
| 20260510111534 | 56 | 51 | 0.0 | 0.0 | 0.00 | 0.00 | 0.00 | 1 | 1013.2 |
| 20260510111032 | 56 | 51 | 0.0 | 0.9 | 0.00 | 0.00 | 0.00 | 1 | 1013.1 |
| 20260510110531 | 56 | 51 | 0.0 | 0.9 | 0.00 | 0.00 | 0.00 | 1 | 1013.1 |
| 20260510110034 | 56 | 211 | 0.0 | 0.0 | 0.00 | 0.00 | 0.00 | 1 | 1013.1 |
| 20260510105531 | 56 | 211 | 0.0 | 0.0 | 0.00 | 0.00 | 0.00 | 1 | 1013.1 |
| 20260510105027 | 56 | 211 | 0.0 | 0.0 | 0.00 | 0.00 | 0.00 | 1 | 1013.1 |
| 20260510104525 | 56 | 211 | 0.0 | 0.0 | 0.00 | 0.00 | 0.00 | 1 | 1013.0 |
| 20260510104027 | 57 | 211 | 0.0 | 0.0 | 0.00 | 0.00 | 0.00 | 1 | 1013.0 |
| 20260510103522 | 57 | 211 | 0.0 | 0.0 | 0.00 | 0.00 | 0.00 | 1 | 1012.8 |
| 20260510103024 | 57 | 211 | 0.0 | 0.0 | 0.00 | 0.00 | 0.00 | 1 | 1012.9 |
| 20260510102519 | 57 | 211 | 0.0 | 0.0 | 0.00 | 0.00 | 0.00 | 1 | 1012.7 |
| 20260510102018 | 57 | 211 | 0.0 | 0.0 | 0.00 | 0.00 | 0.00 | 1 | 1012.7 |
| 20260510101518 | 57 | 211 | 0.0 | 0.0 | 0.00 | 0.00 | 0.00 | 1 | 1012.6 |
| 20260510101015 | 57 | 211 | 0.0 | 0.0 | 0.00 | 0.00 | 0.00 | 1 | 1012.6 |
| 20260510100513 | 58 | 211 | 0.0 | 0.0 | 0.00 | 0.00 | 0.00 | 1 | 1012.5 |
| 20260510100012 | 58 | 211 | 0.0 | 0.0 | 0.00 | 0.00 | 0.00 | 1 | 1012.3 |
| 20260510095511 | 58 | 211 | 0.0 | 0.0 | 0.00 | 0.00 | 0.00 | 1 | 1012.3 |
| 20260510095008 | 58 | 211 | 0.0 | 0.0 | 0.00 | 0.00 | 0.00 | 1 | 1012.3 |
| 20260510094507 | 58 | 211 | 0.0 | 0.0 | 0.00 | 0.00 | 0.00 | 1 | 1012.2 |
| 20260510094006 | 58 | 211 | 0.0 | 0.0 | 0.00 | 0.00 | 0.00 | 1 | 1012.1 |
| 20260510093505 | 59 | 211 | 0.0 | 0.0 | 0.00 | 0.00 | 0.00 | 1 | 1012.2 |
| 20260510093004 | 59 | 211 | 0.0 | 0.0 | 0.00 | 0.00 | 0.00 | 1 | 1012.2 |
| 20260510092503 | 59 | 211 | 0.0 | 0.0 | 0.00 | 0.00 | 0.00 | 1 | 1012.1 |
| 20260510092101 | 59 | 211 | 0.0 | 0.0 | 0.00 | 0.00 | 0.00 | 1 | 1012.1 |
| 20260510091600 | 59 | 211 | 0.0 | 0.0 | 0.00 | 0.00 | 0.00 | 1 | 1012.0 |
| 20260510091057 | 59 | 211 | 0.0 | 0.0 | 0.00 | 0.00 | 0.00 | 1 | 1012.1 |
| 20260510090556 | 59 | 211 | 0.0 | 0.0 | 0.00 | 0.00 | 0.00 | 1 | 1011.9 |
| 20260510090055 | 60 | 211 | 0.0 | 0.0 | 0.00 | 0.00 | 0.00 | 1 | 1011.8 |
| 20260510085555 | 60 | 211 | 0.0 | 0.0 | 0.00 | 0.00 | 0.00 | 1 | 1011.7 |
| 20260510085051 | 60 | 211 | 0.0 | 0.0 | 0.00 | 0.00 | 0.00 | 1 | 1011.8 |
| 20260510084549 | 60 | 211 | 0.0 | 0.0 | 0.00 | 0.00 | 0.00 | 1 | 1011.8 |
| 20260510084048 | 60 | 211 | 0.0 | 0.0 | 0.00 | 0.00 | 0.00 | 1 | 1011.8 |
| 20260510083547 | 61 | 211 | 0.0 | 0.0 | 0.00 | 0.00 | 0.00 | 1 | 1011.7 |
| 20260510083053 | 61 | 211 | 0.0 | 0.0 | 0.00 | 0.00 | 0.00 | 1 | 1011.7 |
| 20260510082544 | 61 | 211 | 0.0 | 0.0 | 0.00 | 0.00 | 0.00 | 1 | 1011.7 |
| 20260510082042 | 61 | 211 | 0.0 | 0.0 | 0.00 | 0.00 | 0.00 | 1 | 1011.7 |
| 20260510081546 | 61 | 211 | 0.0 | 0.0 | 0.00 | 0.00 | 0.00 | 1 | 1011.7 |
| 20260510081041 | 62 | 211 | 0.0 | 0.0 | 0.00 | 0.00 | 0.00 | 1 | 1011.6 |
| 20260510080539 | 62 | 211 | 0.0 | 0.0 | 0.00 | 0.00 | 0.00 | 1 | 1011.7 |
| 20260510080043 | 62 | 211 | 0.0 | 0.0 | 0.00 | 0.00 | 0.00 | 1 | 1011.7 |
| 20260510075541 | 62 | 211 | 0.0 | 0.0 | 0.00 | 0.00 | 0.00 | 1 | 1011.6 |
| 20260510075034 | 62 | 211 | 0.0 | 0.0 | 0.00 | 0.00 | 0.00 | 1 | 1011.5 |
| 20260510074534 | 62 | 211 | 0.0 | 0.0 | 0.00 | 0.00 | 0.00 | 1 | 1011.5 |
| 20260510074032 | 62 | 211 | 0.0 | 0.0 | 0.00 | 0.00 | 0.00 | 1 | 1011.4 |
| 20260510073530 | 63 | 211 | 0.0 | 0.0 | 0.00 | 0.00 | 0.00 | 1 | 1011.4 |
| 20260510073029 | 63 | 211 | 0.0 | 0.0 | 0.00 | 0.00 | 0.00 | 1 | 1011.4 |
| 20260510072527 | 63 | 211 | 0.0 | 0.0 | 0.00 | 0.00 | 0.00 | 1 | 1011.4 |
| 20260510072030 | 63 | 211 | 0.0 | 0.0 | 0.00 | 0.00 | 0.00 | 1 | 1011.4 |
| 20260510071535 | 63 | 211 | 0.0 | 0.0 | 0.00 | 0.00 | 0.00 | 1 | 1011.4 |
| 20260510071023 | 63 | 211 | 0.0 | 0.0 | 0.00 | 0.00 | 0.00 | 1 | 1011.4 |
| 20260510070521 | 63 | 211 | 0.0 | 0.0 | 0.00 | 0.00 | 0.00 | 1 | 1011.3 |
| 20260510070020 | 63 | 211 | 0.0 | 0.0 | 0.00 | 0.00 | 0.00 | 1 | 1011.3 |
| 20260510065519 | 64 | 211 | 0.0 | 0.0 | 0.00 | 0.00 | 0.00 | 1 | 1011.4 |
| 20260510065017 | 64 | 211 | 0.0 | 0.0 | 0.00 | 0.00 | 0.00 | 1 | 1011.4 |
| 20260510064515 | 64 | 211 | 0.0 | 0.0 | 0.00 | 0.00 | 0.00 | 1 | 1011.3 |
| 20260510064014 | 64 | 211 | 0.0 | 0.0 | 0.00 | 0.00 | 0.00 | 1 | 1011.3 |
| 20260510063516 | 64 | 211 | 0.0 | 0.0 | 0.00 | 0.00 | 0.00 | 1 | 1011.4 |
| 20260510063011 | 64 | 211 | 0.0 | 0.0 | 0.00 | 0.00 | 0.00 | 1 | 1011.5 |
| 20260510062510 | 64 | 211 | 0.0 | 0.0 | 0.00 | 0.00 | 0.00 | 1 | 1011.5 |
| 20260510062008 | 64 | 211 | 0.0 | 0.0 | 0.00 | 0.00 | 0.00 | 1 | 1011.4 |
| 20260510061507 | 64 | 211 | 0.0 | 0.0 | 0.00 | 0.00 | 0.00 | 1 | 1011.4 |
| 20260510061005 | 65 | 211 | 0.0 | 0.0 | 0.00 | 0.00 | 0.00 | 1 | 1011.5 |
| 20260510060504 | 65 | 211 | 0.0 | 1.7 | 0.00 | 0.00 | 0.00 | 1 | 1011.6 |
| 20260510060002 | 65 | 211 | 0.0 | 1.7 | 0.00 | 0.00 | 0.00 | 1 | 1011.5 |
| 20260510055501 | 65 | 211 | 0.0 | 1.7 | 0.00 | 0.00 | 0.00 | 1 | 1011.5 |
| 20260510055059 | 65 | 211 | 0.0 | 1.7 | 0.00 | 0.00 | 0.00 | 1 | 1011.3 |
| 20260510054558 | 65 | 211 | 0.0 | 1.7 | 0.00 | 0.00 | 0.00 | 1 | 1011.5 |
| 20260510054056 | 65 | 211 | 0.0 | 2.6 | 0.00 | 0.00 | 0.00 | 1 | 1011.6 |
| 20260510053555 | 65 | 211 | 0.0 | 2.6 | 0.00 | 0.00 | 0.00 | 1 | 1011.6 |
| 20260510053054 | 65 | 211 | 0.0 | 2.6 | 0.00 | 0.00 | 0.00 | 1 | 1011.6 |
| 20260510052553 | 65 | 211 | 0.9 | 2.6 | 0.00 | 0.00 | 0.00 | 1 | 1011.5 |
| 20260510052054 | 66 | 211 | 0.9 | 2.6 | 0.00 | 0.00 | 0.00 | 1 | 1011.6 |
| 20260510051550 | 66 | 211 | 0.9 | 2.6 | 0.00 | 0.00 | 0.00 | 1 | 1011.5 |
| 20260510051048 | 66 | 211 | 0.0 | 2.6 | 0.00 | 0.00 | 0.00 | 1 | 1011.5 |
| 20260510050546 | 66 | 211 | 0.0 | 0.0 | 0.00 | 0.00 | 0.00 | 1 | 1011.6 |
| 20260510050045 | 66 | 211 | 0.0 | 0.0 | 0.00 | 0.00 | 0.00 | 1 | 1011.6 |
| 20260510045544 | 66 | 211 | 0.0 | 0.9 | 0.00 | 0.00 | 0.00 | 1 | 1011.5 |
| 20260510045042 | 66 | 211 | 0.0 | 2.6 | 0.00 | 0.00 | 0.00 | 1 | 1011.6 |
| 20260510044544 | 66 | 211 | 0.9 | 2.6 | 0.00 | 0.00 | 0.00 | 1 | 1011.7 |
| 20260510044042 | 65 | 211 | 0.9 | 2.6 | 0.00 | 0.00 | 0.00 | 1 | 1011.7 |
| 20260510043538 | 65 | 211 | 0.9 | 2.6 | 0.00 | 0.00 | 0.00 | 1 | 1011.6 |
| 20260510043036 | 65 | 211 | 0.9 | 3.5 | 0.00 | 0.00 | 0.00 | 1 | 1011.7 |
| 20260510042535 | 65 | 209 | 0.9 | 2.6 | 0.00 | 0.00 | 0.00 | 1 | 1011.5 |
| 20260510042034 | 65 | 210 | 0.9 | 2.6 | 0.00 | 0.00 | 0.00 | 1 | 1011.5 |
| 20260510041532 | 65 | 131 | 0.0 | 0.0 | 0.00 | 0.00 | 0.00 | 1 | 1011.5 |
| 20260510041030 | 64 | 131 | 0.0 | 0.0 | 0.00 | 0.00 | 0.00 | 1 | 1011.5 |
| 20260510040529 | 64 | 131 | 0.0 | 0.0 | 0.00 | 0.00 | 0.00 | 1 | 1011.5 |
| 20260510040029 | 64 | 131 | 0.0 | 0.0 | 0.00 | 0.00 | 0.00 | 1 | 1011.4 |
| 20260510035527 | 64 | 131 | 0.0 | 0.0 | 0.00 | 0.00 | 0.00 | 1 | 1011.5 |
| 20260510035027 | 64 | 130 | 0.0 | 0.0 | 0.00 | 0.00 | 0.00 | 1 | 1011.5 |
| 20260510034523 | 64 | 130 | 0.0 | 0.0 | 0.00 | 0.00 | 0.00 | 1 | 1011.4 |
| 20260510034022 | 64 | 130 | 0.0 | 0.0 | 0.00 | 0.00 | 0.00 | 1 | 1011.4 |
| 20260510033520 | 64 | 130 | 0.0 | 0.0 | 0.00 | 0.00 | 0.00 | 1 | 1011.4 |
| 20260510033019 | 64 | 130 | 0.0 | 0.0 | 0.00 | 0.00 | 0.00 | 1 | 1011.4 |
| 20260510032517 | 64 | 130 | 0.0 | 0.0 | 0.00 | 0.00 | 0.00 | 1 | 1011.4 |
| 20260510032016 | 64 | 130 | 0.0 | 0.0 | 0.00 | 0.00 | 0.00 | 1 | 1011.3 |
| 20260510031532 | 64 | 130 | 0.0 | 0.0 | 0.00 | 0.00 | 0.00 | 1 | 1011.4 |
| 20260510031012 | 64 | 130 | 0.0 | 0.0 | 0.00 | 0.00 | 0.00 | 1 | 1011.3 |
| 20260510030511 | 64 | 130 | 0.0 | 0.0 | 0.00 | 0.00 | 0.00 | 1 | 1011.2 |
| 20260510030012 | 64 | 130 | 0.0 | 0.0 | 0.00 | 0.00 | 0.00 | 1 | 1011.3 |
| 20260510025509 | 64 | 130 | 0.0 | 0.0 | 0.00 | 0.00 | 0.00 | 1 | 1011.2 |
| 20260510025007 | 64 | 130 | 0.0 | 0.0 | 0.00 | 0.00 | 0.00 | 1 | 1011.2 |
| 20260510024506 | 64 | 130 | 0.0 | 0.0 | 0.00 | 0.00 | 0.00 | 1 | 1011.1 |
| 20260510024004 | 64 | 130 | 0.0 | 0.0 | 0.00 | 0.00 | 0.00 | 1 | 1011.1 |
| 20260510023502 | 64 | 130 | 0.0 | 0.0 | 0.00 | 0.00 | 0.00 | 1 | 1011.0 |
| 20260510023001 | 64 | 130 | 0.0 | 0.0 | 0.00 | 0.00 | 0.00 | 1 | 1011.1 |
| 20260510022601 | 64 | 130 | 0.0 | 0.0 | 0.00 | 0.00 | 0.00 | 1 | 1011.0 |
| 20260510022058 | 64 | 130 | 0.0 | 0.0 | 0.00 | 0.00 | 0.00 | 1 | 1010.9 |
| 20260510021557 | 65 | 130 | 0.0 | 0.0 | 0.00 | 0.00 | 0.00 | 1 | 1010.9 |
| 20260510021057 | 65 | 130 | 0.0 | 0.0 | 0.00 | 0.00 | 0.00 | 4 | 1010.8 |
| 20260510020554 | 65 | 130 | 0.0 | 0.0 | 0.00 | 0.00 | 0.00 | 8 | 1010.7 |
| 20260510020053 | 65 | 130 | 0.0 | 0.0 | 0.00 | 0.00 | 0.00 | 10 | 1010.7 |
| 20260510015552 | 65 | 130 | 0.0 | 0.0 | 0.00 | 0.00 | 0.00 | 13 | 1010.5 |
| 20260510015049 | 65 | 130 | 0.0 | 0.0 | 0.00 | 0.00 | 0.00 | 15 | 1010.4 |
| 20260510014548 | 66 | 130 | 0.0 | 0.0 | 0.00 | 0.00 | 0.00 | 18 | 1010.4 |
| 20260510014048 | 66 | 130 | 0.0 | 0.0 | 0.00 | 0.00 | 0.00 | 20 | 1010.3 |
| 20260510013544 | 66 | 130 | 0.0 | 0.0 | 0.00 | 0.00 | 0.00 | 23 | 1010.2 |
| 20260510013044 | 67 | 130 | 0.0 | 0.0 | 0.00 | 0.00 | 0.00 | 26 | 1010.3 |
| 20260510012542 | 67 | 130 | 0.0 | 0.0 | 0.00 | 0.00 | 0.00 | 28 | 1010.3 |
| 20260510012041 | 67 | 130 | 0.0 | 0.0 | 0.00 | 0.00 | 0.00 | 30 | 1010.2 |
| 20260510011551 | 67 | 130 | 0.0 | 0.0 | 0.00 | 0.00 | 0.00 | 32 | 1010.1 |
| 20260510011037 | 68 | 130 | 0.0 | 0.0 | 0.00 | 0.00 | 0.00 | 34 | 1010.1 |
| 20260510010536 | 68 | 130 | 0.0 | 0.0 | 0.00 | 0.00 | 0.00 | 36 | 1010.0 |
| 20260510010036 | 68 | 130 | 0.0 | 0.0 | 0.00 | 0.00 | 0.00 | 39 | 1010.0 |
| 20260510005534 | 69 | 130 | 0.0 | 0.0 | 0.00 | 0.00 | 0.00 | 41 | 1010.0 |
| 20260510005032 | 69 | 130 | 0.0 | 0.0 | 0.00 | 0.00 | 0.00 | 43 | 1009.9 |
| 20260510004531 | 69 | 130 | 0.0 | 0.0 | 0.00 | 0.00 | 0.00 | 46 | 1009.9 |
| 20260510004028 | 70 | 130 | 0.0 | 0.0 | 0.00 | 0.00 | 0.00 | 47 | 1009.8 |
| 20260510003527 | 70 | 130 | 0.0 | 0.0 | 0.00 | 0.00 | 0.00 | 49 | 1009.7 |
| 20260510003052 | 70 | 130 | 0.0 | 0.0 | 0.00 | 0.00 | 0.00 | 49 | 1009.7 |
| 20260510002527 | 71 | 130 | 0.0 | 0.0 | 0.00 | 0.00 | 0.00 | 50 | 1009.7 |
| 20260510002022 | 71 | 130 | 0.0 | 0.0 | 0.00 | 0.00 | 0.00 | 51 | 1009.6 |
| 20260510001523 | 71 | 130 | 0.0 | 0.0 | 0.00 | 0.00 | 0.00 | 51 | 1009.5 |
| 20260510001020 | 72 | 130 | 0.0 | 0.0 | 0.00 | 0.00 | 0.00 | 52 | 1009.5 |
| 20260510000519 | 72 | 130 | 0.0 | 0.0 | 0.00 | 0.00 | 0.00 | 52 | 1009.4 |
| 20260510000017 | 72 | 130 | 0.0 | 0.0 | 0.00 | 0.00 | 0.00 | 52 | 1009.3 |
| 20260509235515 | 72 | 130 | 0.0 | 0.0 | 0.00 | 0.00 | 0.00 | 52 | 1009.3 |
| 20260509235014 | 73 | 130 | 0.0 | 0.0 | 0.00 | 0.00 | 0.00 | 52 | 1009.2 |
| 20260509234522 | 73 | 130 | 0.0 | 0.0 | 0.00 | 0.00 | 0.00 | 52 | 1009.1 |
| 20260509234010 | 73 | 130 | 0.0 | 0.0 | 0.00 | 0.00 | 0.00 | 52 | 1009.1 |
| 20260509233511 | 73 | 130 | 0.0 | 0.0 | 0.00 | 0.00 | 0.00 | 52 | 1009.2 |
| 20260509233012 | 73 | 130 | 0.0 | 0.0 | 0.00 | 0.00 | 0.00 | 52 | 1009.2 |
| 20260509232507 | 73 | 130 | 0.0 | 0.0 | 0.00 | 0.00 | 0.00 | 52 | 1009.2 |
| 20260509232006 | 73 | 130 | 0.0 | 0.0 | 0.00 | 0.00 | 0.00 | 51 | 1009.2 |
| 20260509231504 | 74 | 129 | 0.0 | 0.0 | 0.00 | 0.00 | 0.00 | 51 | 1009.2 |
| 20260509231002 | 74 | 129 | 0.0 | 0.0 | 0.00 | 0.00 | 0.00 | 52 | 1009.1 |
| 20260509230601 | 74 | 129 | 0.0 | 0.0 | 0.00 | 0.00 | 0.00 | 51 | 1009.1 |
| 20260509230109 | 74 | 129 | 0.0 | 0.0 | 0.00 | 0.00 | 0.00 | 51 | 1009.1 |
| 20260509225558 | 74 | 129 | 0.0 | 0.0 | 0.00 | 0.00 | 0.00 | 51 | 1009.2 |
| 20260509225056 | 74 | 129 | 0.0 | 2.6 | 0.00 | 0.00 | 0.00 | 51 | 1009.0 |